Flight Track Log - Related Links

Times and Time Zones

All times are in EDT time to prevent confusion due to time zone crossing. See the EGF3994 flight status page for this flight to view local times or setup timezone preferences in your user account.

Time Position Orientation Groundspeed Altitude Reporting Facility
EDT Latitude Longitude Course Direction KTS MPH feet Rate Location/Type
Tue 06:52:06 PM 41.9333 -87.9000 90° East 195 224 2,400  Level Chicago TRACON
Tue 06:54:00 PM 41.9643 -87.5095 98° East  Level FlightAware Approximate
Tue 06:54:10 PM 41.8900 -87.7589 112° Southeast 255 293 7,500  Level Chicago Center
Tue 06:55:00 PM 41.9514 -87.3805 98° East  Level FlightAware Approximate
Tue 06:55:12 PM 41.8967 -87.6506 85° East 284 327 9,700  Level Chicago Center
Tue 06:56:00 PM 41.9418 -87.2509 95° East  Level FlightAware Approximate
Tue 06:56:14 PM 41.9058 -87.5333 84° East 307 353 11,700  Level Chicago Center
Tue 06:57:00 PM 41.9333 -87.1213 90° East  Level FlightAware Approximate
Tue 06:57:16 PM 41.9181 -87.4011 83° East 349 402 13,100  Level Chicago Center
Tue 06:58:18 PM 41.9286 -87.2608 84° East 373 429 14,600 1,548 Climbing Chicago Center
Tue 06:59:20 PM 41.9428 -87.0869 84° East 390 449 16,300 1,597 Climbing Chicago Center
Tue 07:00:22 PM 41.9475 -86.9358 88° East 405 466 17,900 1,548 Climbing Chicago Center
Tue 07:01:24 PM 41.9492 -86.7803 89° East 415 478 19,500 1,500 Climbing Chicago Center
Tue 07:02:26 PM 41.9519 -86.6350 88° East 426 490 21,000 1,306 Climbing Chicago Center
Tue 07:03:28 PM 41.9525 -86.4350 90° East 447 514 22,200 968 Climbing Chicago Center
Tue 07:04:30 PM 41.9542 -86.2600 89° East 465 535 23,000 387 Climbing Chicago Center
Tue 07:05:32 PM 41.9181 -86.0886 106° East 481 554 23,000  Level Chicago Center
Tue 07:06:34 PM 41.8697 -85.9225 111° Southeast 477 549 23,000  Level Chicago Center
Tue 07:07:36 PM 41.8197 -85.7567 112° Southeast 479 551 23,000  Level Chicago Center
Tue 07:08:38 PM 41.7697 -85.5894 112° Southeast 483 556 23,000  Level Chicago Center
Tue 07:09:40 PM 41.6594 -85.4772 143° Southeast 451 519 23,000  Level Chicago Center
Tue 07:10:42 PM 41.5422 -85.4247 161° South 442 509 23,000 -194 Level Chicago Center
Tue 07:11:44 PM 41.4294 -85.3767 162° South 433 498 22,600 -677 Descending Chicago Center
Tue 07:12:46 PM 41.3175 -85.3292 162° South 426 490 21,600 -1,161 Descending Chicago Center
Tue 07:13:48 PM 41.1986 -85.2236 146° Southeast 444 511 20,200 -1,403 Descending Chicago Center
Tue 07:14:50 PM 41.1164 -85.1103 134° Southeast 433 498 18,700 -1,452 Descending Chicago Center
Tue 07:15:52 PM 41.0317 -85.0025 136° Southeast 425 489 17,200 -1,392 Descending Chicago Center
Tue 07:16:55 PM 40.9481 -84.8928 135° Southeast 425 489 15,800 -1,056 Descending Chicago Center
Tue 07:17:57 PM 40.8697 -84.7881 135° Southeast 411 473 15,000 -387 Descending Chicago Center
Tue 07:18:59 PM 40.7756 -84.6689 136° Southeast 395 455 15,000  Level Chicago Center
Tue 07:20:01 PM 40.6953 -84.5642 135° Southeast 403 464 15,000 -435 Level Chicago Center
Tue 07:21:03 PM 40.6150 -84.4611 136° Southeast 405 466 14,100 -911 Descending Chicago Center
Tue 07:21:20 PM 40.5881 -84.4281 137° Southeast 404 465 13,800 -938 Descending Indianapolis Center
Tue 07:21:35 PM 40.5789 -84.4144 132° Southeast 405 466 13,600 -1,041 Descending Indianapolis Center
Tue 07:23:21 PM 40.4169 -84.2592 144° Southeast 361 415 11,700 -1,073 Descending Indianapolis Center
Tue 07:23:38 PM 40.3944 -84.2536 169° South 366 421 11,400 -1,091 Descending Indianapolis Center
Tue 07:24:16 PM 40.3317 -84.2531 180° South 323 372 10,700 -1,065 Descending Indianapolis Center
Tue 07:24:40 PM 40.3058 -84.2506 176° South 322 371 10,300 -1,279 Descending Indianapolis Center
Tue 07:25:17 PM 40.2525 -84.2453 176° South 273 314 9,400 -1,452 Descending Indianapolis Center
Tue 07:25:42 PM 40.2300 -84.2422 174° South 279 321 8,800 -1,672 Descending Indianapolis Center
Tue 07:26:18 PM 40.1822 -84.2358 174° South 246 283 7,700 -1,645 Descending Indianapolis Center
Tue 07:26:44 PM 40.1603 -84.2336 176° South 257 296 7,100 -1,385 Descending Indianapolis Center

Login

Don't have an account? Register now (free) for customized features, flight alerts, and more!